Weather History for Watertown, NY

Change the Weather History Date:

Saturday, November 23, 2013

  Actual Average Record
Temperature  
Mean Temperature 27 °F 36 °F  
Max Temperature 35 °F 44 °F 69 °F (1979)
Min Temperature 18 °F 27 °F -2 °F (2000)
Degree Days  
Heating Degree Days 38 29  
Month to date heating degree days 585 584  
Since 1 July heating degree days 1273 1380  
Cooling Degree Days 0 0  
Month to date cooling degree days 0 0  
Year to date cooling degree days 481 362  
Moisture  
Dew Point 21 °F    
Average Humidity 64    
Maximum Humidity 78    
Minimum Humidity 49    
Precipitation  
Precipitation 0.04 in 0.13 in 0.75 in (1992)
Month to date precipitation 2.39 2.90  
Year to date precipitation 31.58 32.07  
Sea Level Pressure  
Sea Level Pressure 30.00 in    
Wind  
Wind Speed 14 mph (WNW)    
Max Wind Speed 30 mph    
Max Gust Speed 39 mph    
Visibility 7 miles    
Events Fog , Snow    
T = Trace of Precipitation, MM = Missing Value Source: NWS Daily Summary

Daily Weather History Graph

Daily Weather History Graph

Search for Another Location

Airport:

Trip Planner

Search our weather history database for the weather conditions in past years. The results will help you decide how hot, cold, wet, or windy it might be!

Date:

Astronomy

Nov. 23, 2013 Rise Set
Actual Time 7:09 AM EST 4:31 PM EST
Civil Twilight 6:37 AM EST 5:03 PM EST
Nautical Twilight 6:02 AM EST 5:38 PM EST
Astronomical Twilight 5:27 AM EST 6:13 PM EST
Moon 10:02 PM EST (11/23) 11:21 AM EST (11/23)
Length of Visible Light 10h 25m
Length of Day
9h 21m
Waning Gibbous, 70% of the Moon is Illuminated
Nov 23
Waning Gibbous
Nov 25
Last Quarter
Dec 2
New
Dec 9
First Quarter
Dec 17
Full

Hourly Weather History & Observations

Time (EST) Temp. Windchill Dew Point Humidity Pressure Visibility Wind Dir Wind Speed Gust Speed Precip Events Conditions
12:56 AM 32.0 °F 26.4 °F 26.1 °F 79% 30.08 in 10.0 mi West 5.8 mph - N/A   Mostly Cloudy
1:56 AM 32.0 °F 23.0 °F 25.0 °F 75% 30.11 in 10.0 mi West 11.5 mph - N/A   Overcast
2:56 AM 30.9 °F 21.7 °F 23.0 °F 72% 30.13 in 10.0 mi West 11.5 mph - N/A   Overcast
3:56 AM 28.9 °F 20.4 °F 21.9 °F 75% 30.13 in 10.0 mi WNW 9.2 mph - N/A   Mostly Cloudy
4:56 AM 30.0 °F 21.1 °F 21.9 °F 72% 30.12 in 10.0 mi WNW 10.4 mph - N/A   Overcast
5:56 AM 30.0 °F 23.2 °F 21.9 °F 72% 30.11 in 10.0 mi WNW 6.9 mph - N/A   Overcast
6:56 AM 28.9 °F 21.9 °F 21.9 °F 75% 30.12 in 10.0 mi WNW 6.9 mph - N/A   Overcast
7:56 AM 28.9 °F 21.9 °F 21.9 °F 75% 30.11 in 10.0 mi WNW 6.9 mph - N/A   Overcast
8:54 AM 30.2 °F 22.6 °F 23.0 °F 75% 30.07 in 10.0 mi West 8.1 mph - N/A   Scattered Clouds
8:56 AM 30.9 °F 24.3 °F 23.0 °F 72% 30.08 in 10.0 mi West 6.9 mph - N/A   Mostly Cloudy
9:56 AM 33.1 °F 25.5 °F 24.1 °F 70% 30.04 in 10.0 mi West 9.2 mph - N/A   Overcast
10:56 AM 35.1 °F 29.3 °F 24.1 °F 64% 29.97 in 10.0 mi West 6.9 mph - 0.00 in   Overcast
11:18 AM 33.8 °F 25.8 °F 24.8 °F 70% 29.96 in 1.5 mi SW 10.4 mph - 0.00 in Snow Light Snow
11:26 AM 32.0 °F 28.7 °F 26.6 °F 80% 29.94 in 0.5 mi Variable 3.5 mph - 0.01 in Snow Snow
11:35 AM 32.0 °F - 28.4 °F 87% 29.94 in 2.5 mi Calm Calm - 0.01 in Snow Light Snow
11:42 AM 32.0 °F 28.7 °F 28.4 °F 87% 29.93 in 9.0 mi North 3.5 mph - 0.01 in   Overcast
11:54 AM 32.0 °F 27.5 °F 28.4 °F 87% 29.93 in 1.8 mi Variable 4.6 mph - 0.02 in Snow Light Snow
11:56 AM 32.0 °F 20.5 °F 28.9 °F 88% 29.94 in 1.0 mi West 18.4 mph 26.5 mph 0.02 in Snow Light Snow
11:58 AM 32.0 °F 18.9 °F 28.4 °F 87% 29.93 in 0.5 mi West 24.2 mph 32.2 mph 0.00 in Fog , Snow Snow
12:06 PM 30.2 °F 18.1 °F 28.4 °F 93% 29.93 in 0.2 mi NW 18.4 mph 33.4 mph 0.01 in Fog , Snow Heavy Snow
12:22 PM 30.2 °F 20.2 °F 28.4 °F 93% 29.91 in 0.5 mi West 12.7 mph - 0.01 in Fog , Snow Light Snow
12:27 PM 32.0 °F 23.0 °F 28.4 °F 87% 29.90 in 2.0 mi West 11.5 mph - 0.01 in Snow Light Snow
12:35 PM 33.8 °F 22.5 °F 28.4 °F 81% 29.90 in 9.0 mi West 19.6 mph 27.6 mph 0.01 in   Overcast
12:45 PM 33.8 °F 22.2 °F 28.4 °F 81% 29.89 in 4.0 mi West 20.7 mph 31.1 mph 0.02 in Snow Light Snow
12:56 PM 34.0 °F 22.1 °F 27.0 °F 75% 29.90 in 9.0 mi West 21.9 mph 28.8 mph 0.02 in   Overcast
1:56 PM 34.0 °F 22.7 °F 21.9 °F 61% 29.89 in 10.0 mi West 19.6 mph 31.1 mph N/A   Overcast
2:56 PM 34.0 °F 22.7 °F 18.0 °F 52% 29.90 in 10.0 mi WNW 19.6 mph 28.8 mph 0.00 in   Overcast
3:56 PM 32.0 °F 21.2 °F 15.1 °F 50% 29.92 in 10.0 mi WNW 16.1 mph 29.9 mph N/A   Mostly Cloudy
4:56 PM 30.0 °F 18.3 °F 14.0 °F 51% 29.95 in 10.0 mi WNW 17.3 mph 26.5 mph N/A   Partly Cloudy
5:56 PM 27.0 °F 14.7 °F 12.9 °F 56% 29.97 in 10.0 mi WNW 16.1 mph 28.8 mph N/A   Mostly Cloudy
6:56 PM 26.1 °F 12.7 °F 10.9 °F 53% 29.99 in 10.0 mi WNW 18.4 mph 26.5 mph N/A   Mostly Cloudy
7:56 PM 24.1 °F 10.6 °F 10.9 °F 57% 30.00 in 10.0 mi WNW 17.3 mph 24.2 mph N/A   Mostly Cloudy
8:56 PM 23.0 °F 7.6 °F 12.0 °F 63% 30.02 in 10.0 mi WNW 21.9 mph 28.8 mph N/A   Overcast
9:23 PM 21.2 °F 5.6 °F 12.2 °F 68% 30.01 in 2.5 mi WNW 20.7 mph 27.6 mph 0.00 in Snow Light Snow
9:56 PM 19.9 °F 6.7 °F 14.0 °F 78% 30.04 in 1.5 mi WNW 13.8 mph 21.9 mph 0.00 in Snow Light Snow
10:31 PM 19.4 °F 4.1 °F 12.2 °F 74% 30.04 in 3.0 mi WNW 18.4 mph 25.3 mph 0.00 in Snow Light Snow
10:51 PM 19.4 °F 4.5 °F 10.4 °F 68% 30.05 in 10.0 mi WNW 17.3 mph 24.2 mph 0.00 in   Overcast
10:56 PM 19.0 °F 5.0 °F 10.0 °F 68% 30.07 in 10.0 mi NW 15.0 mph 24.2 mph 0.00 in   Overcast
11:56 PM 18.0 °F 2.6 °F 9.0 °F 68% 30.09 in 5.0 mi NW 17.3 mph - 0.00 in Snow Light Snow